Doha, Qatar

5:23 PM +03 on April 30, 2017 (GMT +0300)
Doha International

Weather History for OTBD - September, 2012

Change the Weather History Date:

Sunday, September 30, 2012

  Actual Average Record
Temperature  
Mean Temperature 90 °F -  
Max Temperature 97 °F 95 °F 109 °F (2001)
Min Temperature 82 °F 74 °F 78 °F (1996)
Cooling Degree Days 24    
Growing Degree Days 40 (Base 50)    
Moisture  
Dew Point 74 °F    
Average Humidity 59    
Maximum Humidity 74    
Minimum Humidity 31    
Precipitation  
Precipitation 0.00 in 0.00 in - ()
Sea Level Pressure  
Sea Level Pressure 29.86 in    
Wind  
Wind Speed 4 mph ()    
Max Wind Speed 12 mph    
Max Gust Speed -    
Visibility 5.7 miles    
Events      
Averages and records for this station are not official NWS values.
T = Trace of Precipitation, MM = Missing Value Source: Averaged Metar Reports

Daily Weather History Graph

Daily Weather History Graph

Search for Another Location

Airport or City:

Trip Planner

Search our weather history database for the weather conditions in past years. The results will help you decide how hot, cold, wet, or windy it might be!

Date:

Astronomy

Sep. 30, 2012 Rise Set
Actual Time 5:25 AM +03 5:21 PM +03
Civil Twilight 5:02 AM +03 5:44 PM +03
Nautical Twilight 4:36 AM +03 6:10 PM +03
Astronomical Twilight 4:09 AM +03 6:37 PM +03
Moon 5:21 PM +03 5:26 AM +03
Length of Visible Light 12h 41m
Length of Day
11h 55m
Full, 100% of the Moon is Illuminated
Sep 30
Full
Oct 8
Last Quarter
Oct 15
New
Oct 22
First Quarter
Oct 29
Full

Hourly Weather History & Observations

Time (+03) Temp. Heat Index Dew Point Humidity Pressure Visibility Wind Dir Wind Speed Gust Speed Precip Events Conditions
12:00 AM 86.0 °F 95.1 °F 75.2 °F 70% 29.83 in - Variable 2.3 mph - N/A   Clear
12:30 AM 86.0 °F 95.1 °F 75.2 °F 70% 29.83 in - Variable 1.2 mph - N/A   Clear
1:00 AM 86.0 °F 95.1 °F 75.2 °F 70% 29.83 in - Variable 1.2 mph - N/A   Clear
1:30 AM 86.0 °F 95.1 °F 75.2 °F 70% 29.83 in - Variable 1.2 mph - N/A   Clear
2:00 AM 86.0 °F 95.1 °F 75.2 °F 70% 29.83 in - Variable 1.2 mph - N/A   Clear
2:30 AM 86.0 °F 95.1 °F 75.2 °F 70% 29.83 in - Variable 2.3 mph - N/A   Clear
3:00 AM 86 °F - 75 °F 63% 29.84 in 6 mi 1.2 mph - -  
3:00 AM 86.0 °F 95.1 °F 75.2 °F 70% 29.83 in - Variable 1.2 mph - N/A   Clear
3:30 AM 84.2 °F 92.3 °F 75.2 °F 74% 29.83 in - Calm Calm - N/A   Clear
4:00 AM 84.2 °F 92.3 °F 75.2 °F 74% 29.83 in 5.6 mi Calm Calm - N/A   Unknown
4:30 AM 84.2 °F 92.3 °F 75.2 °F 74% 29.83 in 5.6 mi Calm Calm - N/A   Unknown
5:00 AM 86.0 °F 95.1 °F 75.2 °F 70% 29.86 in 5.0 mi Variable 1.2 mph - N/A   Unknown
5:30 AM 84.2 °F 92.3 °F 75.2 °F 74% 29.86 in 5.0 mi SW 3.5 mph - N/A   Unknown
6:00 AM 84.2 °F 92.3 °F 75.2 °F 74% 29.86 in 5.0 mi Variable 2.3 mph - N/A   Unknown
6:30 AM 86.0 °F 96.9 °F 77.0 °F 74% 29.86 in 5.0 mi SW 3.5 mph - N/A   Unknown
7:00 AM 87.8 °F 99.7 °F 77.0 °F 70% 29.89 in 5.0 mi Variable 2.3 mph - N/A   Unknown
7:30 AM 89.6 °F 102.2 °F 77.0 °F 66% 29.89 in 5.0 mi SSW 3.5 mph - N/A   Unknown
8:00 AM 89.6 °F 102.2 °F 77.0 °F 66% 29.89 in - South 3.5 mph - N/A   Clear
8:30 AM 91.4 °F 105.1 °F 77.0 °F 63% 29.92 in - South 3.5 mph - N/A   Clear
9:00 AM 93 °F - 76 °F 48% 29.93 in 6 mi SW 3.5 mph - -  
9:00 AM 93.2 °F 105.0 °F 75.2 °F 56% 29.92 in - SW 3.5 mph - N/A   Clear
9:30 AM 95.0 °F 107.4 °F 75.2 °F 53% 29.92 in - ESE 4.6 mph - N/A   Clear
10:00 AM 95.0 °F 107.4 °F 75.2 °F 53% 29.92 in - ESE 8.1 mph - N/A   Clear
10:30 AM 95.0 °F 107.4 °F 75.2 °F 53% 29.92 in - ESE 8.1 mph - N/A   Clear
11:00 AM 95.0 °F 107.4 °F 75.2 °F 53% 29.89 in - East 5.8 mph - N/A   Clear
11:30 AM 95.0 °F 104.5 °F 73.4 °F 49% 29.89 in - East 6.9 mph - N/A   Clear
12:00 PM 95.0 °F 104.5 °F 73.4 °F 49% 29.89 in 6.2 mi East 8.1 mph - N/A   Partly Cloudy
12:30 PM 96.8 °F 105.1 °F 71.6 °F 44% 29.86 in 6.2 mi ESE 6.9 mph - N/A   Partly Cloudy
1:00 PM 96.8 °F 103.1 °F 69.8 °F 41% 29.86 in 6.2 mi East 8.1 mph - N/A   Partly Cloudy
1:30 PM 96.8 °F 103.1 °F 69.8 °F 41% 29.86 in 6.2 mi East 11.5 mph - N/A   Partly Cloudy
2:00 PM 96.8 °F 103.1 °F 69.8 °F 41% 29.83 in - ENE 10.4 mph - N/A   Clear
2:30 PM 95.0 °F 99.5 °F 68.0 °F 41% 29.83 in - ENE 11.5 mph - N/A   Clear
3:00 PM 95 °F - 67 °F 31% 29.85 in 7 mi ENE 10.4 mph - -  
3:00 PM 95.0 °F 99.5 °F 68.0 °F 41% 29.83 in - ENE 10.4 mph - N/A   Clear
3:30 PM 95.0 °F 99.5 °F 68.0 °F 41% 29.83 in - ENE 10.4 mph - N/A   Clear
4:00 PM 95.0 °F 99.5 °F 68.0 °F 41% 29.83 in - ENE 9.2 mph - N/A   Clear
4:30 PM 93.2 °F 100.5 °F 71.6 °F 49% 29.83 in - East 9.2 mph - N/A   Clear
5:00 PM 91.4 °F 100.1 °F 73.4 °F 55% 29.83 in - East 9.2 mph - N/A   Clear
5:30 PM 91.4 °F 100.1 °F 73.4 °F 55% 29.83 in - East 6.9 mph - N/A   Clear
6:00 PM 89.6 °F 98.2 °F 73.4 °F 59% 29.83 in - East 6.9 mph - N/A   Clear
6:30 PM 89.6 °F 98.2 °F 73.4 °F 59% 29.86 in - East 6.9 mph - N/A   Clear
7:00 PM 89.6 °F 99.8 °F 75.2 °F 62% 29.86 in - East 5.8 mph - N/A   Clear
7:30 PM 89.6 °F 99.8 °F 75.2 °F 62% 29.86 in - East 4.6 mph - N/A   Clear
8:00 PM 89.6 °F 99.8 °F 75.2 °F 62% 29.86 in - ENE 3.5 mph - N/A   Clear
8:30 PM 87.8 °F 95.6 °F 73.4 °F 62% 29.86 in - ENE 5.8 mph - N/A   Clear
9:00 PM 89 °F - 74 °F 54% 29.88 in 6 mi ENE 6.9 mph - -  
9:00 PM 89.6 °F 99.8 °F 75.2 °F 62% 29.86 in - ENE 6.9 mph - N/A   Clear
9:30 PM 87.8 °F 97.6 °F 75.2 °F 66% 29.86 in - ENE 4.6 mph - N/A   Clear
10:00 PM 87.8 °F 97.6 °F 75.2 °F 66% 29.86 in - NE 4.6 mph - N/A   Clear
10:30 PM 87.8 °F 95.6 °F 73.4 °F 62% 29.86 in - ENE 4.6 mph - N/A   Clear
11:00 PM 87.8 °F 97.6 °F 75.2 °F 66% 29.86 in - ENE 4.6 mph - N/A   Clear
11:30 PM 87.8 °F 97.6 °F 75.2 °F 66% 29.83 in - NE 5.8 mph - N/A   Clear